Find Starlink 34095

NORAD ID: 63809 Int'l Des: 2025-092 Owner: SPXS Country: US Constellation: starlink operational
LEOCIRCULAR

Live Position

Loading 3D Globe...

About Starlink 34095

Description loading...

Upcoming Passes

Passes for default location (London). Set your location on the main map for personalized predictions.

Altitude History

Loading altitude history...

Two-Line Element Set

1 63809U 25092F 26126.25387159 .00016384 00000-0 60350-3 0 9990
2 63809 42.9939 207.8632 0000264 267.9633 92.1188 15.27583618 57412
Epoch: May 6, 2026 • Age: 8 hours

Current Status

Altitude 483.2 km
Velocity 7.63 km/s
Sub-Earth Point 26.81°N, 162.36°E
Launch Date May 4, 2025
Age 1 years
Type internet

Technical Details

Classification Payload
Mass 575.00 kg
Dry Mass 530.00 kg
Total Mass 575.00 kg
Length 0.30 m
Diameter 4.10 m
Span 29.00 m
Shape Box + pan
Manufacturer SPXS
Bus Type Starlink V2MO
Phase Status In Orbit
Owner/State SPXS/US

Most Searched